Regional Weather Roundup
Issued by NWS Charleston, SC

Current Version | Previous Version | Graphics & Text | Print | Product List | Glossary On
Versions: 1 2 3 4 5 6 7 8 9 10 11 12 13 14 15 16 17 18 19 20 21 22 23 24 25 26 27 28 29 30 31 32 33 34 35 36 37 38 39 40 41 42 43 44 45 46 47 48 49 50
647
ASUS42 KCHS 250227
RWRCHS

REGIONAL WEATHER ROUNDUP
NATIONAL WEATHER SERVICE CHARLESTON SC
1000 PM EDT FRI MAR 24 2017

NOTE: "FAIR" INDICATES FEW OR NO CLOUDS BELOW 12,000 FEET WITH NO
SIGNIFICANT WEATHER AND/OR OBSTRUCTIONS TO VISIBILITY.

NOT ALL STATIONS ARE QUALITY CONTROLLED. USE DATA WITH CAUTION...
ESPECIALLY DEWPOINT OBSERVATIONS.

SCZ027-030-031-034>040-042>050-250300-
...SOUTHEAST SOUTH CAROLINA...

CITY           SKY/WX    TMP DP  RH WIND       PRES   REMARKS
N CHARLESTON   PTCLDY    61  52  72 SE8       30.38S
WATERFRONT PRK   N/A     61  58  90 VRB2      30.38R
JOHNS ISLAND   FAIR      59  55  88 CALM      30.38S
PINOPOLIS        N/A     63  52  67 CALM      30.28S
MONCKS CORNER  FAIR      55  46  71 CALM      30.38S
SUMMERVILLE    FAIR      55  50  82 CALM      30.39S
BEAUFORT MCAS  MOCLDY    63  59  87 SE5       30.37S
BEAUFORT ARPT  CLOUDY    63  55  77 E6        30.37S
HILTON HEAD IS MOCLDY    64  57  77 VRB5      30.37F
WALTERBORO     PTCLDY    57  52  82 CALM      30.38S
ALLENDALE      FAIR      63  54  72 SE5       30.35S

...SOUTHERN MIDLANDS AND PEE DEE...

CITY           SKY/WX    TMP DP  RH WIND       PRES   REMARKS
GEORGETOWN     MOCLDY    52  52 100 CALM      30.40R
KINGSTREE      FAIR      59  46  63 SE6       30.37S
ORANGEBURG     PTCLDY    63  50  62 S8        30.36R
BARNWELL       FAIR      64  54  68 SE6       30.36S
AIKEN          FAIR      61  46  59 SE8       30.38R
MANNING        FAIR      61  48  63 S3        30.37S
COLUMBIA       CLOUDY    67  47  48 S12       30.34R
SUMTER         CLOUDY    63  48  57 S12       30.33S
FLORENCE       CLEAR     61  51  70 S8        30.37R
MYRTLE BEACH   CLEAR     61  54  77 S12       30.39
N MYRTLE BEACH CLEAR     61  53  75 S6        30.38S

$$

GAZ063-065-086>088-099>101-113>116-118-119-134>141-150-250300-
...SOUTHEAST GEORGIA...

CITY           SKY/WX    TMP DP  RH WIND       PRES   REMARKS
SAVANNAH ARPT  CLOUDY    65  54  67 E7        30.36S
HUNTER AAF     PTCLDY    64  58  81 E6        30.33F
FORT STEWART   PTCLDY    62  54  77 CALM      30.34R
STATESBORO     PTCLDY    62  56  80 CALM      30.37R
SYLVANIA       PTCLDY   N/A N/A N/A CALM      30.37S
CLAXTON        FAIR     N/A N/A N/A CALM      30.36S

...CSRA...CENTRAL AND FAR SOUTHEAST GEORGIA...

CITY           SKY/WX    TMP DP  RH WIND       PRES   REMARKS
THOMSON        CLEAR     65  48  53 SW8G17    30.38R
AUGUSTA-BUSH   PTCLDY    68  49  50 S9        30.33R
AUGUSTA-DANIEL PTCLDY    68  46  45 S8        30.34R
SWAINSBORO     FAIR      63  54  72 SE7       30.36R
VIDALIA        PTCLDY    64  55  72 SE7       30.35R
EASTMAN        FAIR      66  42  42 SE6       30.36R
HAZLEHURST     FAIR      65  56  72 SE6       30.33S
ALMA           CLEAR     64  53  67 E6        30.34R
WAYCROSS       CLEAR     65  58  77 E5        30.34S
JESUP          FAIR      63  54  72 E3        30.36R
BAXLEY         FAIR      64  59  82 SE5       30.35R
BRUNSWICK      PTCLDY    61  59  94 CALM      30.36R
SAINT SIMONS   CLOUDY    65  58  78 E8        30.34S

$$

SCZ027-028-034-036>038-045-046-048>050-GAZ119-141-250300-
...LAKE AND SUPPLEMENTAL COASTAL OBSERVATIONS...

STATION/POSITION TIME  TEMP    WIND        PRES    WAVE   SWELL
                       AIR SEA DIR/SP/G            HT/PER HT/PER/DIR
                 (UTC) (F)     (DEG/KT/KT) (MB)    (FT/S) (FT/S/D)
WINYAH BAY       0145   59        CALM     1029.0S
LAKE MURRAY      0220   64     170/ 10/ 13 1026.8
ACE BASIN NERRS  0130   61        CALM     1028.0S
FORT PULASKI     0200   63 61  100/  6/  7 1028.4
SAPELO ISLAND    0200   62      90/  3     1028.0

$$

ANZ835-935-AMZ111-154-330-350-352-354-370-450-454-472-250300-
...C-MAN AND BUOY OBSERVATIONS...

STATION/POSITION TIME  TEMP    WIND        PRES    WAVE   SWELL
                       AIR SEA DIR/SP/G            HT/PER HT/PER/DIR
                 (UTC) (F)     (DEG/KT/KT) (MB)    (FT/S) (FT/S/D)
BUOY 41004       0150   70 72  140/ 14/ 17 1028.3S   4/ 7   3/140/ 7
BUOY 41008       0150   65 62  110/  8/ 10 1027.7R   4/ 7   3/100/ 7
FOLLY BEACH CMAN 0200   62     110/  5/  6 1029.3R
CAPERS NEARSHORE 0208   62     120/  4/  6 1028.7S
FRIPP NEARSHORE  0208   62 60  120/  6/  8 1028.1F


STATION/POSITION TIME  TEMP    WIND        PRES    WAVE   SWELL
                       AIR SEA DIR/SP/G            HT/PER HT/PER/DIR
                 (UTC) (F)     (DEG/KT/KT) (MB)    (FT/S) (FT/S/D)
5E ST. MARYS GA  0200      64                N/A     4/ 7   2/ 90/11
FRYING PAN BUOY  0210   68 72  170/  8/ 12 1029.3
BUOY 41025       0150   66 74  210/ 19/ 23 1029.0F   4/10   3/ 80/10
CAPE LOOKOUT NC  0200   64     190/ 13/ 15 1028.9F
BUOY 41002       0150   64 74   70/ 14/ 17 1031.1F   5/ 8   3/ 60/ 8
BUOY 41010       NOT AVBL
ST AUGUSTINE FL  0200   67 67   90/  7/  8 1027.9R


$$




USA.gov is the U.S. government's official web portal to all federal, state and local government web resources and services.